sat.trackr.live / text

‹ back to catalog

STARLINK-5162

NORAD 54184 · 2022-141AD

PAYLOAD ACTIVE UNKNOWN

§ Identity

Operator
Country
US
Launch date
2022-10-28
Launch site
AFWTR
Launch vehicle
Mass (kg)
RCS (m²)

Purposes: comms

External: N2YO · Heavens-Above · Gunter

§ Orbital elements

Epoch: 2026-09-20T22:30:41.017536Z

Period
94.01 min
Inclination
53.1605°
Eccentricity
0.0001155
Mean motion
15.31695824 rev/d
Perigee alt
470.0 km
Apogee alt
471.5 km
Semi-major
6,848.9 km
B*
-1.5051e-5
RAAN
194.3138°
Arg perigee
89.2438°
Mean anomaly
270.8696°
Rev number
21,551

§ Raw data

STARLINK-51621 54184U 22141AD  26263.93797474 -.00000832  00000+0 -15051-4 0  99912 54184  53.1605 194.3138 0001155  89.2438 270.8696 15.31695824215515

JSON: /api/v1/satellites/54184 · /tle

For live sub-satellite position, see the globe view (requires WebGL).

§ Visibility from observer

Set your observer location to see the next 7 days of passes ≥ 10°. The values pass through the URL so the page stays shareable.

No JS? Fill the form by hand. The geolocation button needs JavaScript.